EST,Max TemperatureF,Mean TemperatureF,Min TemperatureF,Max Dew PointF,MeanDew PointF,Min DewpointF,Max Humidity, Mean Humidity, Min Humidity, Max Sea Level PressureIn, Mean Sea Level PressureIn, Min Sea Level PressureIn, Max VisibilityMiles, Mean VisibilityMiles, Min VisibilityMiles, Max Wind SpeedMPH, Mean Wind SpeedMPH, Max Gust SpeedMPH,PrecipitationIn, CloudCover, Events, WindDirDegrees
2012-12-1,,,,,,,,,,,,,,,,,,,,,,
2012-12-2,,,,,,,,,,,,,,,,,,,,,,
2012-12-3,,,,,,,,,,,,,,,,,,,,,,
2012-12-4,53,50,48,48,48,46,100,88,77,30.33,30.18,30.04,10,10,10,16,12,21,0.00,5,,183
2012-12-5,53,45,35,54,42,23,100,78,53,30.12,29.95,29.86,10,9,4,31,16,38,0.03,4,,271
2012-12-6,37,30,23,27,22,19,86,64,48,30.32,30.26,30.12,10,10,10,24,15,37,0.00,4,,325
2012-12-7,46,34,23,45,35,18,100,81,65,30.31,30.20,30.08,10,10,6,13,6,18,0.04,5,,196
2012-12-8,55,50,44,54,47,45,100,93,82,30.06,29.95,29.83,10,7,0,14,6,21,0.20,8,,246
2012-12-9,48,45,42,46,40,34,100,79,58,30.30,30.18,29.97,10,10,7,17,10,24,0.04,3,,21
2012-12-10,60,52,44,57,53,41,100,93,87,30.17,29.78,29.51,10,7,2,18,12,26,0.31,8,Thunderstorm,184
2012-12-11,55,47,39,54,39,27,100,75,53,30.14,29.84,29.55,10,10,10,16,12,23,0.00,5,,309
2012-12-12,39,37,35,28,26,23,70,62,52,30.43,30.32,30.15,10,10,10,16,12,22,0.00,2,,327
2012-12-13,44,35,26,28,27,23,93,65,49,30.46,30.39,30.31,10,10,10,12,6,,0.00,1,,344
2012-12-14,48,42,35,32,28,25,75,57,43,30.31,30.18,30.06,10,10,10,18,13,25,0.00,0,,264
2012-12-15,42,38,33,32,26,19,70,60,49,30.35,30.27,30.15,10,10,10,21,14,26,0.00,3,,10
2012-12-16,39,36,33,37,29,19,100,77,56,30.34,30.22,30.08,10,10,4,16,10,25,0.08,7,,101
2012-12-17,48,44,39,46,44,39,100,96,93,30.05,29.93,29.77,10,6,4,20,16,26,0.18,8,,90
2012-12-18,53,50,46,54,48,43,100,95,87,29.75,29.51,29.41,10,8,3,21,14,28,0.21,7,,170
2012-12-19,44,42,41,41,37,34,93,81,70,29.99,29.63,29.41,10,10,4,30,22,39,0.04,8,,324
2012-12-20,42,40,37,37,35,30,93,80,70,30.19,30.13,30.00,10,10,9,18,14,28,0.01,7,,32
2012-12-21,53,46,39,52,42,32,100,86,70,30.05,29.44,29.17,10,9,3,31,16,45,0.44,7,,163
2012-12-22,39,36,32,34,25,18,81,62,45,29.63,29.41,29.26,10,10,10,29,20,39,0.00,7,,265
2012-12-23,39,36,32,27,21,16,61,53,42,29.88,29.82,29.64,10,10,10,28,22,38,0.00,3,,270
2012-12-24,39,34,28,27,23,19,86,60,45,30.08,30.01,29.87,10,10,10,25,15,32,0.00,0,,262
2012-12-25,42,38,33,39,34,27,100,87,65,30.20,30.04,29.98,10,10,7,20,6,25,0.01,8,,360
2012-12-26,39,37,35,37,29,21,100,71,56,30.31,30.19,29.95,10,10,5,24,13,34,0.28,5,,63
2012-12-27,53,44,35,50,43,30,100,92,81,29.88,29.39,29.21,10,6,1,41,23,54,0.56,8,,103
2012-12-28,37,34,32,32,26,23,87,69,60,30.01,29.85,29.56,10,10,7,29,22,40,0.14,4,,307
2012-12-29,41,37,33,37,31,27,100,82,70,30.01,29.77,29.29,10,9,2,31,12,39,0.38,5,,26
2012-12-30,35,32,28,34,24,16,100,72,51,29.92,29.62,29.30,10,9,2,37,29,51,1.12,5,,316
2012-12-31,37,32,26,27,22,16,80,68,59,30.05,29.94,29.78,10,10,10,34,23,52,0.00,3,,276